{"data":{"norad_id":42818,"epoch":"2026-05-25T04:54:50.392224Z","epoch_age_seconds":67558,"freshness":"FRESH","line1":"1 42818U 17041A   26145.20474991 -.00000240  00000+0  00000+0 0  9995","line2":"2 42818   0.0178 315.8466 0002196 105.3322 220.8387  1.00272487 32587","mean_motion":1.00272487,"eccentricity":0.0002196,"inclination_deg":0.0178,"raan_deg":315.8466,"arg_perigee_deg":105.3322,"mean_anomaly_deg":220.8387,"bstar":0,"rev_number":3258,"period_min":1436.086850025,"perigee_km":35777.138834333,"apogee_km":35795.657498178,"semimajor_km":42164.535166255,"source":"CELESTRAK","updated_at":"2026-05-25T13:38:14.335896Z"}}